7 * 24
多渠道服务支持
STARLINK-37114(NORAD编号68561)是SpaceX星链(Starlink)互联网卫星星座中的一员,属于低轨卫星。星链计划旨在通过大规模低轨卫星组网,为全球提供高速低延迟的互联网覆盖服务,这款卫星延续了星链批量制造、发射部署的特点,用于拓展星座覆盖范围,提升服务容量,目前运行在近地轨道,参与全球卫星互联网通信网络的搭建,支撑偏远地区网络接入、移动场景联网等应用需求。
美国
(US)
| 数据来源 | 国际轨道数据 |
| 星历时间: | 2026-06-10T00:08:54+0800 19小时前 查看轨道信息 |
| 半长轴: | 6840.822km |
| 偏心率: | 0.0001029 |
| 轨道倾角: | 53.159° |
| 近地点辐角 | 106.364° |
| 升交点赤经 | 294.204° |
| 平近点角 | 253.747° |
| 近地点: | 461.981km |
| 远地点: | 463.389km |
| 周期: | 93.847分钟 |
| 每日圈数: | 15.344063 |